Regional Weather Roundup
Issued by NWS

Home | Current Version | Previous Version | Graphics & Text | Print | Product List | Glossary On
Versions: 1 2 3 4 5 6 7 8 9 10 11 12 13 14 15 16 17 18 19 20 21 22 23 24 25 26 27 28 29 30 31 32 33 34 35 36 37 38 39 40 41 42 43 44 45 46 47 48 49 50
294
ASUS45 KTFX 161710
RWRMT
MONTANA REGIONAL WEATHER ROUNDUP
NATIONAL WEATHER SERVICE GREAT FALLS MT
1000 AM MST SAT DEC 16 2017

NOTE: "FAIR" INDICATES FEW OR NO CLOUDS BELOW 12000 FEET WITH NO
SIGNIFICANT WEATHER AND/OR OBSTRUCTIONS TO VISIBILITY.

MTZ001>007-043-161800-
WEST OF THE DIVIDE

CITY           SKY/WX    TMP DP  RH WIND       PRES   REMARKS
KALISPELL      CLOUDY    27  25  92 CALM      30.08R
MISSOULA       CLOUDY    28  27  96 CALM      30.08R
BUTTE          CLOUDY    26  20  77 NW8       29.95R WCI  18
MULLAN PASS    HAZE      19  14  81 VRB5      29.98R VSB 1/4
ANACONDA         N/A     27  25  93 N3        29.99R
DEER LODGE       N/A     27  25  93 N10       30.01R WCI  17
EUREKA           N/A     27  23  86 MISG      30.12R
HAMILTON         N/A     30  28  93 CALM      30.06R
LIBBY            N/A     25  25 100 S3        30.12R
PLAINS           N/A     28  24  85 CALM      30.12R
RONAN            N/A     27  25  92 CALM      30.11R
$$

MTZ008-052>055-161800-
SOUTHWEST MONTANA

CITY           SKY/WX    TMP DP  RH WIND       PRES   REMARKS
BOZEMAN        LGT SNOW  30  29  96 W6        29.95R VSB 3/4 WCI  24
DILLON         LGT SNOW  28  25  88 CALM      29.94R VSB 3/4
W YELLOWSTONE  MIX PCPN  23  21  93 SW3       29.86S
ENNIS          LGT SNOW  28  27  93 N9        29.95R WCI  20
THREE FORKS      N/A     30  29  96 CALM      29.96R VSB 1
TWIN BRIDGES     N/A     30  22  72 CALM      29.94R
$$

MTZ009-010-012-014-046-048-049-054-161800-
EAST SLOPES AND CENTRAL MONTANA

CITY           SKY/WX    TMP DP  RH WIND       PRES   REMARKS
CUT BANK       SNOW      27  27 100 SE3       29.99R VSB 1/2
GREAT FALLS    CLOUDY    30  26  85 NE6       30.00R WCI  24
MALMSTROM AFB  FAIR      28  28 100 NW3       30.00R
HELENA         CLOUDY    29  26  89 CALM      29.97R
BOWMANS CRNR   PTSUNNY   26  26  99 NE5       29.95R
CHOTEAU          N/A     30  28  93 CALM      30.01R
FAIRFIELD      FLURRIES  29  26  90 E8        29.98R WCI  21
POWER          CLOUDY    28  27  95 SE3       29.98R
RAYNESFORD     FLURRIES  29  25  82 SE7       29.98R WCI  22
ULM            PTSUNNY   29  28  94 NE5       29.99R
$$

MTZ011-013-016-021-045-047-050-051-161800-
NORTH CENTRAL MONTANA

CITY           SKY/WX    TMP DP  RH WIND       PRES   REMARKS
HAVRE          CLOUDY    28  27  96 W5        30.02R
LEWISTOWN      CLOUDY    30  26  85 N3        29.97R
N BAR RANCH    CLOUDY    30  18  59 CALM      29.98R
CHINOOK          N/A     30  30 100 SW6       30.02R WCI  24
DENTON         PTSUNNY   31  27  86 W6        29.96R WCI  25
GEYSER         FLURRIES  29  26  89 S6        29.98R WCI  22
GRASS RANGE    PTSUNNY   30  26  83 W3        29.95R
STANFORD       LGT SNOW  26  26  98 CALM      29.97R FOG
WINIFRED       PTSUNNY   30  29  94 S3        29.98R
$$

MTZ017>020-022>027-061-062-161800-
NORTHEAST MONTANA

CITY           SKY/WX    TMP DP  RH WIND       PRES   REMARKS
GLASGOW        CLOUDY    25  22  88 W6        29.99R WCI  18
GLENDIVE       FAIR      31  24  75 NW10      29.98R WCI  22
JORDAN           N/A     33  28  81 W8        29.99R WCI  26
SIDNEY         FAIR      32  22  66 NW16      29.96R WCI  21
WOLF POINT     FAIR      25  20  81 W8        29.99R WCI  16
MALTA          CLOUDY    32  30  93 W7        30.00R WCI  26
PLENTYWOOD       N/A     28  21  74 CALM      29.92R
POPLAR           N/A     25  19  80 W8        29.99R WCI  16
SCOBEY           N/A     28  15  58 W6        29.92  WCI  22
$$

MTZ028>42-056>058-161800-
SOUTHCENTRAL AND SOUTHEAST MONTANA

CITY           SKY/WX    TMP DP  RH WIND       PRES   REMARKS
BAKER          PTSUNNY   31  28  89 W7        29.98R WCI  24
BILLINGS       LGT SNOW  30  30 100 E6        29.98R VSB 1   WCI  24
LIVINGSTON     SNOW      32  31  96 E5        29.92R VSB 1/2
MILES CITY     CLOUDY    33  29  85 W6        30.00R WCI  28
BIG TIMBER     FOG       30  30 100 E9        29.96R VSB 1/4 WCI  22
EKALAKA          N/A     30  25  82 W5        29.94
FORSYTH          N/A     34  30  86 W3        30.00S
LAUREL           N/A     30  28  93 NE8       29.99R FOG     WCI  23
ROUNDUP          N/A     31  26  81 CALM      29.90R
$$

REGIONAL REPORTS...DAKOTAS

CITY           SKY/WX    TMP DP  RH WIND       PRES   REMARKS
WILLISTON      FAIR      30  21  69 CALM      29.95R
MINOT          CLOUDY    36  29  75 W15       29.88R WCI  27
DICKINSON      FAIR      31  26  82 NW16      29.92R WCI  20
BEACH          FAIR      28  27  93 W7        29.99R WCI  21
CROSBY         FAIR      30  23  74 W15       29.90S WCI  19
TIOGA          FAIR      28  27  93 NW16      29.92R WCI  17
WATFORD CITY   FAIR      30  25  80 SW5       29.95R
BISMARCK       PTSUNNY   39  33  79 NW15G22   29.92R WCI  31
GRAND FORKS    CLOUDY    24  20  84 SW6       29.88R WCI  17
FARGO          CLOUDY    28  24  85 S5        29.89R
BUFFALO SD       N/A     33  27  78 NW17      29.88R WCI  22
RAPID CITY     CLOUDY    35  32  88 N12       29.96R WCI  27
$$

REGIONAL REPORTS...WYOMING/IDAHO/WASHINGTON

CITY           SKY/WX    TMP DP  RH WIND       PRES   REMARKS
GILLETTE       LGT SNOW  30  28  92 N6        29.94R VSB 3/4 WCI  24
SHERIDAN       LGT SNOW  31  30  96 NE9       29.96R VSB 1   WCI  23
BUFFALO WY     LGT SNOW  33  28  81 N6        29.93R VSB 3/4 WCI  28
CODY           LGT SNOW  33  30  88 N3        29.89R VSB 1
YELLOWSTONE LA   N/A     22  19  89 CALM      29.85S
IDAHO FALLS    LGT SNOW  23  22  96 SW8       29.97R VSB 3/4 WCI  14
SALMON         PTSUNNY   27  24  89 CALM      30.06R
BOISE          FAIR      26  22  84 NW9       30.11R WCI  17
SPOKANE        SNOW      25  25 100 W3        30.21R VSB 1/4
$$

REGIONAL REPORTS...ALBERTA

CITY           SKY/WX    TMP DP  RH WIND       PRES   REMARKS
EDMONTON       CLEAR     28  14  54 W13       29.89R WCI  18
CALGARY        PTCLDY    28   9  43 SW5       29.95R
LETHBRIDGE     FLURRIES  30  28  93 SE5       30.01R
MEDICINE HAT   PTSUNNY   28  25  86 SW7       30.00R WCI  21
$$

REGIONAL REPORTS...SASKATCHEWAN

CITY           SKY/WX    TMP DP  RH WIND       PRES   REMARKS
SWIFT CURRENT  MOSUNNY   25  16  68 W15       29.90R WCI  12
REGINA         MOSUNNY   27  19  74 W14       29.86R WCI  15
SASKATOON      MOCLDY    27  19  74 SW14      29.82R WCI  15
$$




USA.gov is the U.S. government's official web portal to all federal, state and local government web resources and services.